Location: Peebles
(55.6412°N, 3.1714°W)
Time: 11:03:12
(UTC+01:00)

OBJECT A - Pass Details

Date: 06 July 2022
Orbit: 611 x 632 km, 97.9° (Epoch: 16 August)

Event Time Altitude Azimuth Distance (km) Brightness Sun altitude
Exits shadow 01:01:03 - 229° (SW) 2,623 ? -11.6°
Reaches altitude 10° 01:03:56 10° 257° (WSW) 1,993 ? -11.6°
Maximum altitude 01:05:21 11° 276° (W) 1,902 ? -11.6°
Drops below altitude 10° 01:06:46 10° 296° (WNW) 1,994 ? -11.6°
Sets 01:10:34 0° 330° (NNW) 2,902 ? -11.6°
